This demonstration page uses our WeatherBlox Daily Observations layout. Learn more.

Left ArrowRight Arrow

39.92423, -83.80882

Hourly Observations for June 30, 2015

Temp ( °F °C ) Dew Point ( °F °C ) Humidity (%) Winds ( mph kmh ) Pressure ( in mb ) Visibility ( mi km ) Precip ( " mm )
12:17 am 00:17 Mostly Cloudy with Fog 61 16 61 16 100 100 Calm 29.83 1010 0.5 0.80467 0 0
12:22 am 00:22 Mostly Cloudy with Mist and Fog 61 16 61 16 100 100 Calm 29.83 1010 1 1.60934 0 0
12:35 am 00:35 Mostly Cloudy with Fog 61 16 61 16 100 100 Calm 29.83 1010 0.5 0.80467 0 0
12:56 am 00:56 Clear with Fog 61 16.1 61 16.1 100 100 Calm 29.84 1011 0.25 0.402335 0 0
1:03 am 01:03 Mostly Cloudy with Fog 61 16 61 16 100 100 SW 3 6 29.83 1010 0.5 0.80467 0 0
1:21 am 01:21 Mostly Cloudy with Mist and Fog 61 16 61 16 100 100 Calm 29.83 1010 1 1.60934 0 0
1:31 am 01:31 Mostly Cloudy with Mist and Fog 61 16 61 16 100 100 WSW 3 6 29.83 1010 0.75 1.207005 0 0
1:35 am 01:35 Mostly Cloudy with Mist and Fog 61 16 61 16 100 100 WSW 3 6 29.83 1010 1.25 2.011675 0 0
1:56 am 01:56 Mostly Cloudy with Mist and Fog 62 16.6 62 16.6 100 100 Calm 29.83 1010 1.75 2.816345 0 0
2:02 am 02:02 Mostly Cloudy with Mist and Fog 63 17 63 17 100 100 Calm 29.8 1009 1 1.60934 0 0
2:08 am 02:08 Mostly Cloudy with Mist and Fog 63 17 63 17 100 100 Calm 29.8 1009 0.75 1.207005 0 0
2:25 am 02:25 Cloudy with Mist and Fog 61 16 61 16 100 100 Calm 29.8 1009 1.25 2.011675 0 0
2:30 am 02:30 Cloudy with Mist and Fog 61 16 61 16 100 100 Calm 29.8 1009 2 3.21868 0 0
2:56 am 02:56 Cloudy with Mist and Fog 62 16.6 62 16.6 100 100 S 3 6 29.83 1010 2.5 4.02335 0 0
3:14 am 03:14 Mostly Cloudy with Mist and Fog 63 17 63 17 100 100 Calm 29.8 1009 1.75 2.816345 0 0
3:20 am 03:20 Mostly Cloudy with Mist and Fog 63 17 63 17 100 100 Calm 29.8 1009 1.25 2.011675 0 0
3:24 am 03:24 Mostly Cloudy with Mist and Fog 63 17 63 17 100 100 Calm 29.8 1009 0.75 1.207005 0 0
3:32 am 03:32 Mostly Cloudy with Fog 61 16 61 16 100 100 Calm 29.8 1009 0.25 0.402335 0 0
3:39 am 03:39 Mostly Cloudy with Fog 61 16 61 16 100 100 Calm 29.8 1009 0.5 0.80467 0 0
3:44 am 03:44 Mostly Cloudy with Mist and Fog 61 16 61 16 100 100 Calm 29.8 1009 1 1.60934 0 0
3:48 am 03:48 Mostly Cloudy with Fog 61 16 61 16 100 100 Calm 29.8 1009 0.5 0.80467 0 0
3:56 am 03:56 Cloudy with Fog 60 15.5 60 15.5 100 100 Calm 29.81 1010 5 8.0467 0 0
4:37 am 04:37 Cloudy with Fog 61 16 61 16 100 100 SSE 3 6 29.8 1009 0.25 0.402335 0 0
4:46 am 04:46 Cloudy with Mist and Fog 63 17 63 17 100 100 S 3 6 29.8 1009 0.75 1.207005 0 0
4:56 am 04:56 Cloudy with Fog 62 16.6 62 16.6 100 100 Calm 29.82 1010 0.5 0.80467 0 0
5:07 am 05:07 Cloudy with Fog 63 17 63 17 100 100 Calm 29.8 1009 0.25 0.402335 0 0
5:34 am 05:34 Cloudy with Fog 64 18 64 18 100 100 WSW 3 6 29.8 1009 0.5 0.80467 0 0
5:47 am 05:47 Cloudy with Mist and Fog 64 18 64 18 100 100 SW 5 7 29.8 1009 1 1.60934 0 0
5:56 am 05:56 Cloudy with Mist and Fog 64 17.7 64 17.7 100 100 SW 5 7 29.82 1010 1.75 2.816345 0 0
6:25 am 06:25 Cloudy with Mist and Fog 64 18 64 18 100 100 SSW 6 9 29.83 1010 2 3.21868 0 0
6:38 am 06:38 Cloudy with Mist and Fog 64 18 64 18 100 100 SW 6 9 29.83 1010 1.25 2.011675 0 0
6:46 am 06:46 Cloudy with Mist and Fog 64 18 64 18 100 100 SW 7 11 29.83 1010 1 1.60934 0 0
6:56 am 06:56 Cloudy with Mist and Fog 65 18.3 65 18.3 100 100 SW 8 13 29.84 1011 1.5 2.41401 0 0
7:07 am 07:07 Cloudy with Mist and Fog 64 18 64 18 100 100 SW 6 9 29.85 1011 2.5 4.02335 0 0
7:56 am 07:56 Mostly Cloudy with Mist and Fog 65 18.3 65 18.3 100 100 SW 7 11 29.86 1011 2.5 4.02335 0 0
8:05 am 08:05 Mostly Cloudy with Mist and Fog 66 19 66 19 100 100 SW 7 11 29.85 1011 3 4.82802 0 0
8:12 am 08:12 Mostly Cloudy with Mist and Fog 66 19 66 19 100 100 SW 8 13 29.85 1011 3 4.82802 0 0
8:56 am 08:56 Cloudy with Mist and Fog 67 19.4 67 19.4 100 100 SW 9 15 29.87 1012 4 6.43736 0 0
9:16 am 09:16 Mostly Cloudy with Mist and Fog 68 20 68 20 100 100 SW 8 13 29.85 1011 5 8.0467 0 0
9:23 am 09:23 Mostly Cloudy with Mist and Fog 70 21 68 20 94 94 SSW 9 15 29.85 1011 5 8.0467 0 0
9:44 am 09:44 Mostly Cloudy with Mist and Fog 70 21 66 19 88 88 SSW 8 13 29.85 1011 6 9.65604 0 0
9:56 am 09:56 Mostly Cloudy with Mist and Fog 70 21.1 67 19.4 90 90 SSW 9 15 29.87 1011 6 9.65604 0 0
10:12 am 10:12 Mostly Cloudy with Mist and Fog 70 21 66 19 88 88 SW 9 15 29.85 1011 6 9.65604 0 0
10:24 am 10:24 Mostly Cloudy 72 22 66 19 83 83 SSW 10 17 29.85 1011 7 11.26538 0 0
10:31 am 10:31 Mostly Cloudy with Mist and Fog 72 22 66 19 83 83 SW 9 15 29.85 1011 6 9.65604 0 0
10:40 am 10:40 Mostly Cloudy with Haze 72 22 66 19 83 83 SW 10 17 29.85 1011 6 9.65604 0 0
10:56 am 10:56 Mostly Cloudy with Mist and Fog 72 22.2 68 20 87 87 SW 9 15 29.85 1011 6 9.65604 0 0
11:56 am 11:56 Mostly Cloudy with Haze 74 23.3 68 20 82 82 SSW 13 20 29.84 1011 6 9.65604 0 0
12:14 pm 12:14 Mostly Cloudy with Haze 73 23 66 19 78 78 WSW 12 19 29.83 1010 6 9.65604 0 0
12:47 pm 12:47 Mostly Cloudy with Light Rain 72 22 68 20 88 88 SW 10 17 29.85 1011 5 8.0467 0 0.0254
12:56 pm 12:56 Mostly Cloudy with Mist and Fog 71 21.6 67 19.4 87 87 SW 13 20 29.85 1011 6 9.65604 0 0.0254
1:56 pm 13:56 Partly Cloudy 76 24.4 68 20 77 77 WSW 14 22 29.83 1010 7 11.26538 0 0
2:08 pm 14:08 Mostly Cloudy 75 24 68 20 78 78 W 10 17 29.77 1008 7 11.26538 0 0
2:19 pm 14:19 Partly Cloudy 77 25 66 19 69 69 W 15 24 29.77 1008 7 11.26538 0 0
2:56 pm 14:56 Mostly Sunny 77 25 65 18.3 66 66 W 14 22 29.81 1009 7 11.26538 0 0
3:56 pm 15:56 Mostly Sunny 74 23.3 65 18.3 74 74 WSW 10 17 29.83 1010 7 11.26538 0 0
4:56 pm 16:56 Sunny 74 23.3 66 18.8 76 76 WSW 13 20 29.81 1010 7 11.26538 0 0
5:56 pm 17:56 Sunny 74 23.3 68 20 82 82 SSW 9 15 29.8 1009 7 11.26538 0 0
6:56 pm 18:56 Hazy 72 22.2 66 18.8 81 81 SSW 9 15 29.8 1009 6 9.65604 0 0
8:56 pm 20:56 Sunny with Mist and Fog 69 20.5 65 18.3 87 87 SSW 9 15 29.81 1010 6 9.65604 0 0
9:56 pm 21:56 Clear 66 18.8 65 18.3 97 97 Calm 29.85 1011 7 11.26538 0 0
10:56 pm 22:56 Partly Cloudy with Mist and Fog 65 18.3 64 17.7 96 96 SSW 5 7 29.87 1012 6 9.65604 0 0
11:56 pm 23:56 Mostly Clear with Mist and Fog 65 18.3 64 17.7 96 96 SSW 9 15 29.87 1011 6 9.65604 0 0

Powered by AerisWeather